Regional Weather Roundup
Issued by NWS State College, PA

Home | Current Version | Previous Version | Text Only | Print | Product List | Glossary On
Versions: 1 2 3 4 5 6 7 8 9 10 11 12 13 14 15 16 17 18 19 20 21 22 23 24 25 26 27 28 29 30 31 32 33 34 35 36 37 38 39 40 41 42 43 44 45 46 47 48 49 50
000
ASUS41 KCTP 252210
RWRCTP

REGIONAL WEATHER ROUNDUP
NATIONAL WEATHER SERVICE STATE COLLEGE PA
600 PM EDT SAT MAR 25 2017

Note: "fair" indicates few or no clouds below 12,000 feet with no
significant weather and/or obstructions to visibility.

* = STATION THAT DOES NOT REPORT PRECIPITATION /E.G. RAIN...SNOW...ETC/
    THUNDER OR FOG.

PAZ002>004-007>009-013>016-020>023-029>032-252300-
WESTERN PENNSYLVANIA

CITY           SKY/WX    TMP DP  RH WIND       PRES   REMARKS
ERIE           CLOUDY    38  34  85 NE15      30.22F
MEADVILLE      CLOUDY    57  46  66 NE5       30.16F
FRANKLIN*      CLOUDY    61  48  63 E3        30.18S
NEW CASTLE     MOCLDY    68  52  56 NE7       30.15S
BEAVER COUNTY  NOT AVBL
BUTLER*        CLOUDY    70  52  52 NE6       30.15S
PITTSBURGH INT CLOUDY    71  52  50 E3        30.13S
PITTSBURGH     PTSUNNY   71  48  43 CALM      30.13S
INDIANA*       MOSUNNY   70  52  52 CALM      30.18S
LATROBE        NOT AVBL
WASHINGTON CO* CLOUDY    72  50  46 CALM      30.15R
$$

PAZ004>006-010>012-017>019-024>028-033>037-041-042-045-046-049>053-252300-
CENTRAL PENNSYLVANIA

CITY           SKY/WX    TMP DP  RH WIND       PRES   REMARKS
BRADFORD       CLOUDY    51  44  77 E6        30.19F
DUBOIS         CLOUDY    61  50  67 NE7       30.17S
CLEARFIELD       N/A    N/A N/A N/A MISG      30.18R
JOHNSTOWN      CLOUDY    67  50  54 CALM      30.17F
ALTOONA        CLOUDY    71  52  50 CALM      30.16S
STATE COLLEGE  CLOUDY    52  46  82 NE12      30.21R
WILLIAMSPORT   CLOUDY    49  39  68 NW5       30.23F
SELINSGROVE    CLOUDY    55  43  63 NE9       30.23R
FT INDIANTOWN  MOSUNNY   71  54  53 NE5       30.14R
CAPITAL CITY   CLOUDY    77  50  38 CALM      30.13R
HARRISBURG     PTSUNNY   69  52  54 CALM      30.12S
YORK           CLOUDY    72  54  53 S5        30.14R
$$

PAZ038>040-043-044-047-048-054-055-060>062-067>071-252300-
EASTERN PENNSYLVANIA

CITY           SKY/WX    TMP DP  RH WIND       PRES   REMARKS
SCRANTON       CLOUDY    44  43  96 W5        30.24S FOG
MOUNT POCONO   LGT RAIN  41  41 100 CALM      30.22F
ALLENTOWN      CLOUDY    56  40  55 E15       30.23R
QUAKERTOWN*    MOCLDY    55  41  58 NE10G20   30.23R
READING        LGT RAIN  64  48  56 NE18G28   30.16R
LANCASTER      PTSUNNY   73  60  63 E5        30.14R
COATESVILLE    CLOUDY    68  55  64 SE3       30.17S
POTTSTOWN      CLOUDY    65  52  62 NE13G22   30.19R
BLUE BELL      CLOUDY    61  50  67 NE13G20   30.19R
DOYLESTOWN     CLOUDY    59  47  64 NE12G22   30.21R
WILLOW GROVE   NOT AVBL
NORTH PHILA    CLOUDY    60  49  66 NE15      30.23R
PHILADELPHIA   LGT RAIN  62  57  83 NE13      30.18R
$$




USA.gov is the U.S. government's official web portal to all federal, state and local government web resources and services.